Change the Weather History Date:

Tuesday, August 12, 2014

  Actual Average Record
Temperature  
Mean Temperature 76 °F -  
Max Temperature 84 °F 87 °F 100 °F (1999)
Min Temperature 69 °F 68 °F 62 °F (2004)
Cooling Degree Days 12    
Growing Degree Days 26 (Base 50)    
Moisture  
Dew Point 65 °F    
Average Humidity 70    
Maximum Humidity 89    
Minimum Humidity 45    
Precipitation  
Precipitation 0.00 in - - ()
Sea Level Pressure  
Sea Level Pressure 29.99 in    
Wind  
Wind Speed 7 mph (NW)    
Max Wind Speed 13 mph    
Max Gust Speed 17 mph    
Visibility 10 miles    
Events      
Averages and records for this station are not official NWS values.
T = Trace of Precipitation, MM = Missing Value Source: NWS Daily Summary

Daily Weather History Graph

Daily Weather History Graph

Search for Another Location

Airport or City:

Trip Planner

Search our weather history database for the weather conditions in past years. The results will help you decide how hot, cold, wet, or windy it might be!

Date:

Astronomy

Aug. 12, 2014 Rise Set
Actual Time 6:24 AM CDT 7:57 PM CDT
Civil Twilight 5:57 AM CDT 8:24 PM CDT
Nautical Twilight 5:25 AM CDT 8:56 PM CDT
Astronomical Twilight 4:51 AM CDT 9:30 PM CDT
Moon 9:14 PM CDT (8/12) 8:34 AM CDT (8/12)
Length of Visible Light 14h 26m
Length of Day
13h 32m
Waning Gibbous, 94% of the Moon is Illuminated
Aug 12
Waning Gibbous
Aug 17
Last Quarter
Aug 25
New
Sep 2
First Quarter
Sep 8
Full

Hourly Weather History & Observations

Time (CDT) Temp. Heat Index Dew Point Humidity Pressure Visibility Wind Dir Wind Speed Gust Speed Precip Events Conditions
12:35 AM 75.2 °F - 71.6 °F 89% 29.96 in 10.0 mi West 5.8 mph - N/A   Clear
12:55 AM 75.2 °F - 71.6 °F 89% 29.96 in 10.0 mi WSW 4.6 mph - N/A   Clear
1:15 AM 75.2 °F - 69.8 °F 83% 29.97 in 10.0 mi WSW 4.6 mph - N/A   Clear
1:35 AM 73.4 °F - 69.8 °F 88% 29.97 in 10.0 mi SW 5.8 mph - N/A   Clear
1:55 AM 73.4 °F - 69.8 °F 88% 29.97 in 10.0 mi WSW 5.8 mph - N/A   Clear
2:15 AM 73.4 °F - 69.8 °F 88% 29.96 in 10.0 mi West 6.9 mph - N/A   Clear
2:35 AM 73.4 °F - 69.8 °F 88% 29.96 in 10.0 mi West 6.9 mph - N/A   Clear
2:55 AM 73.4 °F - 69.8 °F 88% 29.96 in 10.0 mi WNW 6.9 mph - N/A   Clear
3:15 AM 73.4 °F - 69.8 °F 88% 29.96 in 10.0 mi WNW 8.1 mph - N/A   Partly Cloudy
3:35 AM 73.4 °F - 69.8 °F 88% 29.96 in 10.0 mi NW 8.1 mph - N/A   Partly Cloudy
3:55 AM 73.4 °F - 68.0 °F 83% 29.96 in 10.0 mi NNW 10.4 mph - N/A   Clear
4:35 AM 71.6 °F - 66.2 °F 83% 29.97 in 10.0 mi North 9.2 mph - N/A   Clear
4:55 AM 71.6 °F - 66.2 °F 83% 29.97 in 10.0 mi North 9.2 mph - N/A   Clear
5:15 AM 71.6 °F - 66.2 °F 83% 29.97 in 10.0 mi NNW 6.9 mph - N/A   Partly Cloudy
5:35 AM 71.6 °F - 66.2 °F 83% 29.97 in 10.0 mi NNW 6.9 mph - N/A   Partly Cloudy
5:55 AM 71.6 °F - 66.2 °F 83% 29.98 in 10.0 mi North 5.8 mph - N/A   Scattered Clouds
6:15 AM 71.6 °F - 66.2 °F 83% 29.98 in 10.0 mi North 6.9 mph - N/A   Mostly Cloudy
6:35 AM 69.8 °F - 66.2 °F 88% 29.99 in 10.0 mi NNW 6.9 mph - N/A   Partly Cloudy
6:55 AM 71.6 °F - 66.2 °F 83% 29.99 in 10.0 mi NNW 9.2 mph - N/A   Scattered Clouds
7:15 AM 71.6 °F - 66.2 °F 83% 29.99 in 10.0 mi NNW 9.2 mph - N/A   Scattered Clouds
7:35 AM 71.6 °F - 66.2 °F 83% 30.00 in 10.0 mi NNW 6.9 mph - N/A   Scattered Clouds
7:55 AM 73.4 °F - 66.2 °F 78% 30.00 in 10.0 mi NNW 10.4 mph - N/A   Partly Cloudy
8:15 AM 73.4 °F - 64.4 °F 73% 30.00 in 10.0 mi NNW 10.4 mph - N/A   Clear
8:35 AM 73.4 °F - 66.2 °F 78% 30.00 in 10.0 mi NNW 9.2 mph - N/A   Clear
8:55 AM 75.2 °F - 64.4 °F 69% 30.00 in 10.0 mi North 12.7 mph - N/A   Clear
9:15 AM 75.2 °F - 64.4 °F 69% 30.01 in 10.0 mi North 12.7 mph - N/A   Clear
9:35 AM 75.2 °F - 62.6 °F 65% 30.02 in 10.0 mi NNW 9.2 mph - N/A   Scattered Clouds
9:55 AM 77.0 °F - 62.6 °F 61% 30.02 in 10.0 mi North 12.7 mph - N/A   Mostly Cloudy
10:15 AM 78.8 °F - 64.4 °F 61% 30.03 in 10.0 mi NNW 10.4 mph - N/A   Mostly Cloudy
10:35 AM 78.8 °F - 62.6 °F 57% 30.03 in 10.0 mi North 11.5 mph 17.3 mph N/A   Mostly Cloudy
10:55 AM 78.8 °F - 64.4 °F 61% 30.03 in 10.0 mi NNW 11.5 mph - N/A   Clear
12:35 PM 80.6 °F 82.3 °F 64.4 °F 58% 30.02 in 10.0 mi North 10.4 mph - N/A   Partly Cloudy
12:55 PM 80.6 °F 81.8 °F 62.6 °F 54% 30.02 in 10.0 mi North 12.7 mph - N/A   Scattered Clouds
1:15 PM 82.4 °F 83.4 °F 62.6 °F 51% 30.01 in 10.0 mi North 12.7 mph - N/A   Partly Cloudy
1:35 PM 82.4 °F 83.4 °F 62.6 °F 51% 30.02 in 10.0 mi North 10.4 mph - N/A   Clear
1:55 PM 82.4 °F 83.9 °F 64.4 °F 54% 30.01 in 10.0 mi NNW 10.4 mph - N/A   Partly Cloudy
2:15 PM 82.4 °F 83.4 °F 62.6 °F 51% 30.01 in 10.0 mi NW 6.9 mph - N/A   Scattered Clouds
2:35 PM 84.2 °F 85.0 °F 62.6 °F 48% 30.01 in 10.0 mi NNW 11.5 mph - N/A   Partly Cloudy
2:55 PM 82.4 °F 83.4 °F 62.6 °F 51% 30.00 in 10.0 mi NW 8.1 mph - N/A   Scattered Clouds
3:35 PM 84.2 °F 85.0 °F 62.6 °F 48% 30.00 in 10.0 mi NNW 10.4 mph - N/A   Mostly Cloudy
3:55 PM 84.2 °F 85.0 °F 62.6 °F 48% 29.99 in 10.0 mi North 9.2 mph - N/A   Mostly Cloudy
4:15 PM 84.2 °F 84.4 °F 60.8 °F 45% 29.99 in 10.0 mi NW 10.4 mph - N/A   Scattered Clouds
4:35 PM 84.2 °F 84.4 °F 60.8 °F 45% 29.99 in 10.0 mi WNW 9.2 mph - N/A   Partly Cloudy
4:55 PM 84.2 °F 84.4 °F 60.8 °F 45% 29.99 in 10.0 mi NW 8.1 mph - N/A   Scattered Clouds
5:15 PM 84.2 °F 85.0 °F 62.6 °F 48% 29.99 in 10.0 mi NNW 9.2 mph - N/A   Partly Cloudy
5:35 PM 84.2 °F 84.4 °F 60.8 °F 45% 29.98 in 10.0 mi NNW 6.9 mph - N/A   Clear
5:55 PM 84.2 °F 85.0 °F 62.6 °F 48% 29.98 in 10.0 mi NNW 6.9 mph - N/A   Clear
6:15 PM 84.2 °F 85.0 °F 62.6 °F 48% 29.98 in 10.0 mi NW 5.8 mph - N/A   Clear
6:55 PM 82.4 °F 83.9 °F 64.4 °F 54% 29.97 in 10.0 mi NW 4.6 mph - N/A   Clear
7:15 PM 80.6 °F 82.7 °F 66.2 °F 61% 29.97 in 10.0 mi NW 4.6 mph - N/A   Clear
7:35 PM 80.6 °F 82.7 °F 66.2 °F 61% 29.97 in 10.0 mi WNW 3.5 mph - N/A   Clear
7:55 PM 78.8 °F - 68.0 °F 69% 29.97 in 10.0 mi WNW 3.5 mph - N/A   Clear
8:15 PM 77.0 °F - 66.2 °F 69% 29.98 in 10.0 mi WNW 4.6 mph - N/A   Clear
8:35 PM 75.2 °F - 66.2 °F 73% 29.98 in 10.0 mi WNW 3.5 mph - N/A   Clear
8:55 PM 75.2 °F - 66.2 °F 73% 29.98 in 10.0 mi WNW 3.5 mph - N/A   Clear
9:15 PM 73.4 °F - 66.2 °F 78% 29.99 in 10.0 mi Calm Calm - N/A   Clear
9:55 PM 75.2 °F - 66.2 °F 73% 30.01 in 10.0 mi Calm Calm - N/A   Clear
10:15 PM 71.6 °F - 66.2 °F 83% 30.01 in 10.0 mi Calm Calm - N/A   Clear
10:35 PM 71.6 °F - 66.2 °F 83% 30.02 in 10.0 mi Calm Calm - N/A   Clear
10:55 PM 73.4 °F - 66.2 °F 78% 30.02 in 10.0 mi Calm Calm - N/A   Clear
11:15 PM 71.6 °F - 64.4 °F 78% 30.02 in 10.0 mi Calm Calm - N/A   Clear
11:55 PM 71.6 °F - 66.2 °F 83% 30.02 in 10.0 mi Calm Calm - N/A   Partly Cloudy